TimeEST,TemperatureF,Dew PointF,Humidity,Sea Level PressureIn,VisibilityMPH,Wind Direction,Wind SpeedMPH,Gust SpeedMPH,PrecipitationIn,Events,Conditions,WindDirDegrees,DateUTC
12:53 AM,46.0,37.0,71,30.14,10.0,NW,4.6,-,N/A,,Partly Cloudy,310,2014-01-17 05:53:00
1:53 AM,45.0,37.9,76,30.14,10.0,WNW,5.8,-,N/A,,Partly Cloudy,300,2014-01-17 06:53:00
2:53 AM,44.1,39.0,82,30.14,10.0,WNW,3.5,-,N/A,,Partly Cloudy,300,2014-01-17 07:53:00
3:53 AM,44.1,37.0,76,30.14,10.0,NW,5.8,-,N/A,,Partly Cloudy,320,2014-01-17 08:53:00
4:53 AM,43.0,37.0,80,30.14,10.0,NW,4.6,-,N/A,,Partly Cloudy,320,2014-01-17 09:53:00
5:53 AM,43.0,37.0,80,30.15,10.0,NW,4.6,-,N/A,,Scattered Clouds,320,2014-01-17 10:53:00
6:53 AM,43.0,36.0,76,30.16,10.0,NW,5.8,-,N/A,,Mostly Cloudy,310,2014-01-17 11:53:00
7:53 AM,45.0,34.0,65,30.17,10.0,NW,6.9,-,N/A,,Mostly Cloudy,320,2014-01-17 12:53:00
8:53 AM,50.0,32.0,50,30.20,10.0,NW,5.8,-,N/A,,Partly Cloudy,310,2014-01-17 13:53:00
9:53 AM,54.0,28.9,38,30.22,10.0,NW,5.8,-,N/A,,Partly Cloudy,310,2014-01-17 14:53:00
10:53 AM,57.9,30.9,36,30.21,10.0,WNW,6.9,-,N/A,,Scattered Clouds,300,2014-01-17 15:53:00
11:53 AM,61.0,34.0,36,30.17,10.0,WNW,4.6,-,N/A,,Scattered Clouds,300,2014-01-17 16:53:00
12:53 PM,63.0,35.1,35,30.14,10.0,WNW,3.5,-,N/A,,Scattered Clouds,300,2014-01-17 17:53:00
1:53 PM,64.0,37.9,38,30.11,10.0,WNW,4.6,-,N/A,,Scattered Clouds,300,2014-01-17 18:53:00
2:53 PM,64.9,41.0,42,30.10,10.0,NNW,5.8,-,N/A,,Mostly Cloudy,340,2014-01-17 19:53:00
3:53 PM,64.0,42.1,45,30.10,10.0,North,4.6,-,N/A,,Overcast,360,2014-01-17 20:53:00
4:53 PM,63.0,39.9,43,30.10,10.0,NNW,6.9,-,N/A,,Overcast,330,2014-01-17 21:53:00
5:53 PM,61.0,41.0,48,30.11,10.0,NW,8.1,-,N/A,,Mostly Cloudy,310,2014-01-17 22:53:00
6:53 PM,60.1,41.0,49,30.13,10.0,NW,8.1,-,N/A,,Scattered Clouds,320,2014-01-17 23:53:00
7:53 PM,57.9,41.0,53,30.16,10.0,NW,8.1,-,N/A,,Mostly Cloudy,310,2014-01-18 00:53:00
8:53 PM,57.0,39.9,53,30.17,10.0,NW,5.8,-,N/A,,Scattered Clouds,310,2014-01-18 01:53:00
9:53 PM,57.0,37.9,49,30.17,10.0,WNW,4.6,-,N/A,,Mostly Cloudy,290,2014-01-18 02:53:00
10:53 PM,55.9,28.9,36,30.17,10.0,NW,5.8,-,N/A,,Mostly Cloudy,310,2014-01-18 03:53:00
11:53 PM,55.9,30.0,37,30.15,10.0,WNW,3.5,-,N/A,,Scattered Clouds,300,2014-01-18 04:53:00